SCP
0 0 0 0 0 0 0 0 0 0 0 0 0 0 0 0 0 0 0 0 0 0
0 0 0 0 0 0 0 0 0 0 0 0 0 0 0 0 0 0 0 0 0 0
0 0 0 0 0 0 0 0 0 0 0 0 0 0 0 0 0 0 0 0 0 0
0 0 0 0 0 0 0 0 0 0 0 0 0 0 0 0 0 0 0 0 0 0
0 0 0 0 0 0 0 0 0 0 0 0 0 0 0 0 0 0 0 0 0 0
0 0 0 0 0 0 0 0 0 0 0 0 0 0 0 0 0 0 0 0 0 0
0 0 0 0 0 0 0 0 0 0 0 0 0 0 0 0 0 0 0 0 0 0
0 0 0 0 0 0 0 0 0 0 0 0 0 0 0 0 0 0 0 0 0 0
0 0 0 0 0 0 0 0 0 0 0 0 0 0 0 0 0 0 0 0 0 0
0 0 0 0 0 0 0 0 0 0 0 0 0 0 0 0 0 0 0 0 0 0
0 0 0 0 0 0 0 0 0 0 0 0 0 0 0 0 0 0 0 0 0 0
0 0 0 0 0 0 0 0 0 0 0 0 0 0 0 0 0 0 0 0 0 0
0 0 0 0 0 0 0 0 0 0 0 0 0 0 0 0 0 0 0 0 0 0
0 0 0 0 0 0 0 0 0 0 0 0 0 0 0 0 0 0 0 0 0 0
Wind_Speed_500mb
58 58 55 54 57 52 52 53 50 48 51 54 58 64 66 67 64 64 59 58 49 44
56 55 57 56 55 53 53 55 55 57 59 59 60 63 62 56 57 58 55 51 49 45
52 52 54 55 54 53 52 52 56 57 58 59 62 57 52 54 58 57 54 50 44 38
52 54 56 53 49 51 53 57 57 57 57 58 60 58 59 62 61 60 54 48 40 37
56 55 53 50 51 52 50 54 57 54 54 57 56 60 67 65 60 52 51 36 36 43
58 55 52 50 54 52 54 53 55 55 58 59 64 71 68 55 56 52 40 45 45 36
60 58 54 49 51 51 52 54 59 62 67 70 76 72 60 60 66 54 52 51 44 38
63 60 58 52 50 52 54 57 62 71 77 77 82 71 65 72 58 58 62 53 42 40
67 67 65 59 54 57 59 63 70 77 76 85 82 70 72 69 67 68 64 52 48 43
74 73 71 66 61 63 67 70 77 85 87 92 78 74 73 75 71 72 55 52 46 47
83 80 76 73 70 67 70 76 84 90 92 92 78 84 74 78 74 64 62 52 44 54
90 86 82 80 79 73 76 81 89 94 98 90 90 88 85 84 79 74 57 51 52 56
91 90 87 82 82 80 79 82 92 95 102 92 98 84 92 90 76 79 58 57 59 61
87 87 84 82 85 84 82 87 95 97 99 103 93 90 98 88 93 71 70 63 63 65
Wind_Direction_500mb
236 235 233 231 233 234 238 240 236 232 227 230 229 220 212 206 207 213 221 223 212 202
232 235 235 233 235 232 233 240 236 237 233 231 221 213 209 207 212 215 210 199 193 185
233 234 234 234 236 237 237 238 239 233 230 222 216 210 198 200 198 199 191 186 184 180
234 234 233 235 236 236 239 238 235 231 226 218 208 197 191 193 195 189 186 184 178 179
236 236 237 237 236 235 236 235 231 226 217 207 198 190 189 188 184 195 187 176 191 181
238 238 238 240 233 232 232 231 225 216 208 197 191 188 187 191 199 185 200 202 184 179
241 239 239 240 233 231 231 226 217 208 198 193 193 191 189 199 199 201 202 193 194 197
242 238 238 234 230 229 227 220 212 203 197 198 196 193 200 198 202 202 194 196 198 206
242 239 237 233 227 228 223 215 208 203 205 200 197 192 205 210 204 202 197 204 203 204
243 241 239 233 226 225 223 216 209 206 205 201 204 213 202 202 206 196 207 206 212 208
244 241 237 232 228 223 223 218 211 209 207 205 213 203 203 202 201 202 221 221 213 218
244 240 236 231 228 224 222 216 213 212 207 213 206 208 202 205 200 213 221 227 208 219
247 243 238 234 229 225 223 221 216 215 210 212 205 213 207 208 213 218 226 230 212 221
249 244 238 234 230 225 222 220 218 217 214 211 211 214 212 218 219 220 233 233 214 221
Wind_Speed_850mb
58 58 55 54 57 52 52 53 50 48 51 54 58 64 66 67 64 64 59 58 49 44
56 55 57 56 55 53 53 55 55 57 59 59 60 63 62 56 57 58 55 51 49 45
52 52 54 55 54 53 52 52 56 57 58 59 62 57 52 54 58 57 54 50 44 38
52 54 56 53 49 51 53 57 57 57 57 58 60 58 59 62 61 60 54 48 40 37
56 55 53 50 51 52 50 54 57 54 54 57 56 60 67 65 60 52 51 36 36 43
58 55 52 50 54 52 54 53 55 55 58 59 64 71 68 55 56 52 40 45 45 36
60 58 54 49 51 51 52 54 59 62 67 70 76 72 60 60 66 54 52 51 44 38
63 60 58 52 50 52 54 57 62 71 77 77 82 71 65 72 58 58 62 53 42 40
67 67 65 59 54 57 59 63 70 77 76 85 82 70 72 69 67 68 64 52 48 43
74 73 71 66 61 63 67 70 77 85 87 92 78 74 73 75 71 72 55 52 46 47
83 80 76 73 70 67 70 76 84 90 92 92 78 84 74 78 74 64 62 52 44 54
90 86 82 80 79 73 76 81 89 94 98 90 90 88 85 84 79 74 57 51 52 56
91 90 87 82 82 80 79 82 92 95 102 92 98 84 92 90 76 79 58 57 59 61
87 87 84 82 85 84 82 87 95 97 99 103 93 90 98 88 93 71 70 63 63 65
Wind_Direction_850mb
236 235 233 231 233 234 238 240 236 232 227 230 229 220 212 206 207 213 221 223 212 202
232 235 235 233 235 232 233 240 236 237 233 231 221 213 209 207 212 215 210 199 193 185
233 234 234 234 236 237 237 238 239 233 230 222 216 210 198 200 198 199 191 186 184 180
234 234 233 235 236 236 239 238 235 231 226 218 208 197 191 193 195 189 186 184 178 179
236 236 237 237 236 235 236 235 231 226 217 207 198 190 189 188 184 195 187 176 191 181
238 238 238 240 233 232 232 231 225 216 208 197 191 188 187 191 199 185 200 202 184 179
241 239 239 240 233 231 231 226 217 208 198 193 193 191 189 199 199 201 202 193 194 197
242 238 238 234 230 229 227 220 212 203 197 198 196 193 200 198 202 202 194 196 198 206
242 239 237 233 227 228 223 215 208 203 205 200 197 192 205 210 204 202 197 204 203 204
243 241 239 233 226 225 223 216 209 206 205 201 204 213 202 202 206 196 207 206 212 208
244 241 237 232 228 223 223 218 211 209 207 205 213 203 203 202 201 202 221 221 213 218
244 240 236 231 228 224 222 216 213 212 207 213 206 208 202 205 200 213 221 227 208 219
247 243 238 234 229 225 223 221 216 215 210 212 205 213 207 208 213 218 226 230 212 221
249 244 238 234 230 225 222 220 218 217 214 211 211 214 212 218 219 220 233 233 214 221